Regional Weather Roundup
Issued by NWS Albany, NY

Home | Current Version | Previous Version | Text Only | Print | Product List | Glossary On
Versions: 1 2 3 4 5 6 7 8 9 10 11 12 13 14 15 16 17 18 19 20 21 22 23 24 25 26 27 28 29 30 31 32 33 34 35 36 37 38 39 40 41 42 43 44 45 46 47 48 49 50
000
ASUS41 KALY 031910
RWRALY

NEW YORK STATE HOURLY WEATHER ROUNDUP
NATIONAL WEATHER SERVICE ALBANY NY
300 PM EDT MON AUG 03 2015

NOTE: "FAIR" INDICATES FEW OR NO CLOUDS BELOW 12,000 FEET WITH NO
SIGNIFICANT WEATHER AND/OR NO OBSTRUCTIONS TO VISIBILITY.

NYZ032-033-038>043-046>054-057>066-NYZ062>081-032000-
EAST


CITY           SKY/WX    TMP DP  RH WIND       PRES   REMARKS
ALBANY         TSTM      80  70  71 NE6       29.70F
GLENS FALLS    MOSUNNY   84  62  47 S9        29.71F
POUGHKEEPSIE   SUNNY     92  58  31 S10G22    29.74F HX  91
NEWBURGH       MOSUNNY   90  57  33 W15G28    29.78F
MONTGOMERY     MOSUNNY   90  61  37 SW17      29.76S HX  90
WHITE PLAINS   MOSUNNY   88  62  41 S9G16     29.79F
ISLIP          MOSUNNY   85  68  56 S15       29.81S
NEW YORK CITY  MOSUNNY   90  58  33 SW18G25   29.78F
CENTRAL PARK   SUNNY     89  60  37 SW9G18    29.81F
$$

NYZ005>009-017-018-044>046-055-056-032000-
CENTRAL


CITY           SKY/WX    TMP DP  RH WIND       PRES   REMARKS
FULTON         CLOUDY    75  62  64 NW10      29.76S
SYRACUSE       PTSUNNY   81  59  47 SW15G21   29.75F
ROME           CLOUDY    77  61  57 VRB6      29.77F
ELMIRA         PTSUNNY   83  60  45 W10       29.77F
BINGHAMTON     MOSUNNY   77  59  53 SW9       29.81F
MONTICELLO     MOSUNNY   84  64  51 SW14G25   29.81F
$$

NYZ026>034-041>043-032000-
NORTH


CITY           SKY/WX    TMP DP  RH WIND       PRES   REMARKS
WATERTOWN      CLOUDY    68  65  90 SW7       29.75F
FORT DRUM      NOT AVBL
MASSENA        PTSUNNY   75  62  64 SW18      29.70F
SARANAC LAKE   CLOUDY    71  58  63 W9G17     29.76F
PLATTSBURGH    PTSUNNY   78  60  53 W6        29.68F
$$

NYZ001>004-010>016-019>021-032000-
WEST


CITY           SKY/WX    TMP DP  RH WIND       PRES   REMARKS
NIAGARA FALLS  PTSUNNY   79  56  45 W9G18     29.75S
BUFFALO        MOSUNNY   78  61  55 SW16      29.77S
DUNKIRK        PTSUNNY   74  63  68 W10G22    29.81R
JAMESTOWN      PTSUNNY   70  63  78 W8        29.85S
WELLSVILLE     PTSUNNY   78  57  48 VRB7      29.86S
ROCHESTER      CLOUDY    81  61  50 SW21G26   29.75F
PENN YAN       MOSUNNY   81  60  48 VRB6      29.78F
$$

             KEY
       WCI = WIND CHILL INDEX
       VSB = VISIBILITY
       HX  = HEAT INDEX
$$


USA.gov is the U.S. government's official web portal to all federal, state and local government web resources and services.